User: anonymous   Login
Location: Vancouver
(49.2500°N, 123.1330°W)
Time: 07:13:27
(UTC-07:00)
Language:

Cosmos 1864 Rocket - Orbit

View from above orbital plane
View from above orbital plane
View from above satellite
View from above satellite

Ground track
Ground track

The orbit data is extracted from the following two-line orbital elements,

1 18161U 87057B   17178.85227102 +.00000055 +00000-0 +41039-4 0  9996
2 18161 082.9346 064.0136 0029872 284.6976 122.4004 13.76976540485436
Epoch (UTC): 27 June 2017 20:27:16
Eccentricity: 0.0029872
inclination: 82.9346°
perigee height: 952 km
apogee height: 996 km
right ascension of ascending node: 64.0136°
argument of perigee: 284.6976°
revolutions per day: 13.76976540
mean anomaly at epoch: 122.4004°
orbit number at epoch: 48543

The dashed part of the orbit path shows where the satellite is in the earth's shadow,  

DLR